Location: *
(42.0175°N, 9.4056°E)
Time: 15:11:16
(UTC+00:00)

Cosmos 1346 Rocket - Pass Details

Date: 25 August 2019
Orbit: 519 x 560 km, 81.2° (Epoch: 22 September)

Event Time Altitude Azimuth Distance (km) Brightness Sun altitude
Exits shadow 20:48:03 39° 278° (W) 800 3.9 -26.3°
Maximum altitude 20:48:12 39° 284° (WNW) 797 4.0 -26.3°
Drops below altitude 10° 20:51:51 10° 354° (N) 1,766 6.0 -26.8°
Sets 20:54:07 0° 3° (N) 2,662 6.9 -27.1°
